This is the latest recevied weather packets stored in our database for station/object HG5PBP-13. If no packets are shown the sender has not sent any weather packets the latest 1 day(s).
| Time | Temp. | Humidity | Pressure | Rain* | Wind** | Luminosity | Snow |
|---|---|---|---|---|---|---|---|
| 1778020160 | 14.44° C | 6% | - | 0 mm | 2.24 m/s, 265° | - | - |
| 1778019860 | 14.44° C | 6% | - | 0 mm | 0.45 m/s, 279° | - | - |
| 1778019560 | 14.44° C | 6% | - | 0 mm | 2.68 m/s, 216° | - | - |
| 1778019260 | 14.44° C | 6% | - | 0 mm | 1.34 m/s, 256° | - | - |
| 1778018960 | 14.44° C | 6% | - | 0 mm | 0.89 m/s, 179° | - | - |
| 1778018660 | 14.44° C | 6% | - | 0 mm | 0.89 m/s, 168° | - | - |
| 1778018360 | 14.44° C | 6% | - | 0 mm | 0.89 m/s, 192° | - | - |
| 1778018060 | 14.44° C | 6% | - | 0 mm | 1.34 m/s, 37° | - | - |
| 1778017760 | 14.44° C | 6% | - | 0 mm | 2.24 m/s, 233° | - | - |
| 1778017460 | 15° C | 6% | - | 0 mm | 1.34 m/s, 277° | - | - |
| 1778017160 | 15° C | 6% | - | 0 mm | 0.89 m/s, 234° | - | - |
| 1778016860 | 15° C | 6% | - | 0 mm | 2.24 m/s, 211° | - | - |
| 1778016560 | 15° C | 6% | - | 0 mm | 1.79 m/s, 262° | - | - |
| 1778016260 | 15° C | 6% | - | 0 mm | 1.79 m/s, 184° | - | - |
| 1778015960 | 15° C | 6% | - | 0 mm | 3.13 m/s, 247° | - | - |
| 1778015660 | 15° C | 5% | - | 0 mm | 0.89 m/s, 323° | - | - |
| 1778015360 | 15° C | 6% | - | 0 mm | 1.34 m/s, 247° | - | - |
| 1778015062 | 15° C | 6% | - | 0 mm | 2.68 m/s, 231° | - | - |
| 1778014760 | 15.56° C | 6% | - | 0 mm | 1.79 m/s, 257° | - | - |
| 1778014459 | 15.56° C | 6% | - | 0 mm | 0.89 m/s, 170° | - | - |
| 1778014160 | 15.56° C | 5% | - | 0 mm | 1.34 m/s, 243° | - | - |
| 1778013859 | 15.56° C | 5% | - | 0 mm | 1.34 m/s, 214° | - | - |
| 1778013559 | 15.56° C | 5% | - | 0 mm | 1.34 m/s, 255° | - | - |
| 1778013259 | 15.56° C | 5% | - | 0 mm | 0.89 m/s, 50° | - | - |
| 1778012959 | 15.56° C | 5% | - | 0 mm | 0.89 m/s, 259° | - | - |
* Rain latest hour (hover to see other rain measurements)
** Current wind speed in m/s (hover to see current wind gust speed)